Weather History for North Platte, NE

Change the Weather History Date:

Monday, October 17, 2011

  Actual Average Record
Temperature  
Mean Temperature 40 °F 49 °F  
Max Temperature 49 °F 64 °F 89 °F (1926)
Min Temperature 31 °F 33 °F 15 °F (1948)
Degree Days  
Heating Degree Days 25 16  
Month to date heating degree days 138 227  
Since 1 July heating degree days 313 398  
Cooling Degree Days 0 0  
Month to date cooling degree days 17 0  
Year to date cooling degree days 921 765  
Moisture  
Dew Point 40 °F    
Average Humidity 81    
Maximum Humidity 96    
Minimum Humidity 66    
Precipitation  
Precipitation 0.12 in 0.06 in 0.75 in (1883)
Month to date precipitation 1.90 0.91  
Year to date precipitation 23.00 18.54  
Snow  
Snow 0.00 in 0.10 in 0.80 in (2006)
Month to date snowfall 0.0 0.8  
Since 1 July snowfall 0.0 1.0  
Since 1 September snowfall 0.0 1.0  
Snow Depth 0.00 in    
Sea Level Pressure  
Sea Level Pressure 30.09 in    
Wind  
Wind Speed 8 mph (NNE)    
Max Wind Speed 20 mph    
Max Gust Speed 25 mph    
Visibility 10 miles    
Events Rain    
T = Trace of Precipitation, MM = Missing Value Source: NWS Daily Summary

Daily Weather History Graph

Daily Weather History Graph

Search for Another Location

Airport:

Trip Planner

Search our weather history database for the weather conditions in past years. The results will help you decide how hot, cold, wet, or windy it might be!

Date:

Astronomy

Oct. 17, 2011 Rise Set
Actual Time 7:56 AM CDT 6:59 PM CDT
Civil Twilight 7:28 AM CDT 7:27 PM CDT
Nautical Twilight 6:56 AM CDT 7:58 PM CDT
Astronomical Twilight 6:24 AM CDT 8:30 PM CDT
Moon 10:39 PM CDT (10/17) 1:06 PM CDT (10/17)
Length of Visible Light 11h 58m
Length of Day
11h 03m
Waning Gibbous, 74% of the Moon is Illuminated
Oct 17
Waning Gibbous
Oct 19
Last Quarter
Oct 26
New
Nov 2
First Quarter
Nov 10
Full

Hourly Weather History & Observations

Time (CDT) Temp. Windchill Dew Point Humidity Pressure Visibility Wind Dir Wind Speed Gust Speed Precip Events Conditions
12:53 AM 48.0 °F - 37.9 °F 68% 30.04 in 10.0 mi Calm Calm - N/A   Mostly Cloudy
1:53 AM 46.0 °F - 39.9 °F 79% 30.02 in 10.0 mi Calm Calm - 0.00 in   Partly Cloudy
2:53 AM 45.0 °F 42.6 °F 39.0 °F 80% 29.99 in 10.0 mi SSE 4.6 mph - N/A   Clear
3:53 AM 46.0 °F - 39.9 °F 79% 29.98 in 10.0 mi Calm Calm - 0.00 in Rain Light Rain
4:53 AM 44.6 °F 38.4 °F 41.0 °F 87% 29.94 in 10.0 mi ESE 12.7 mph - N/A Rain Light Rain
5:53 AM 45.0 °F 42.6 °F 41.0 °F 86% 29.97 in 10.0 mi East 4.6 mph - 0.00 in   Overcast
6:53 AM 44.1 °F 38.1 °F 42.1 °F 93% 29.89 in 10.0 mi SSE 11.5 mph 23.0 mph 0.04 in Rain Light Rain
7:53 AM 45.0 °F 39.7 °F 42.1 °F 90% 29.99 in 10.0 mi North 10.4 mph - 0.00 in   Overcast
8:53 AM 45.0 °F 42.6 °F 43.0 °F 93% 29.99 in 10.0 mi East 4.6 mph - 0.00 in   Overcast
9:53 AM 46.0 °F 40.2 °F 43.0 °F 89% 29.98 in 10.0 mi East 12.7 mph - N/A   Mostly Cloudy
10:53 AM 46.9 °F - 42.1 °F 83% 30.01 in 10.0 mi East 11.5 mph - N/A   Mostly Cloudy
11:53 AM 46.0 °F 42.5 °F 39.9 °F 79% 30.04 in 10.0 mi ESE 6.9 mph - N/A   Overcast
12:53 PM 46.4 °F 41.9 °F 41.0 °F 81% 30.04 in 10.0 mi East 9.2 mph - N/A   Overcast
1:53 PM 46.0 °F 39.9 °F 37.9 °F 73% 30.07 in 10.0 mi East 13.8 mph - N/A   Overcast
2:53 PM 44.1 °F 38.6 °F 39.9 °F 85% 30.10 in 6.0 mi NE 10.4 mph - 0.02 in Rain Light Rain
3:53 PM 44.1 °F 38.1 °F 41.0 °F 89% 30.14 in 6.0 mi NNE 11.5 mph - 0.03 in Rain Light Rain
4:51 PM 44.6 °F 37.2 °F 42.8 °F 93% 30.14 in 10.0 mi North 17.3 mph 25.3 mph 0.02 in Rain Light Rain
4:53 PM 43.0 °F 35.7 °F 41.0 °F 93% 30.17 in 10.0 mi North 15.0 mph 25.3 mph 0.02 in Rain Light Rain
5:23 PM 44.6 °F 38.4 °F 41.0 °F 87% 30.15 in 10.0 mi North 12.7 mph - 0.00 in Rain Light Rain
5:48 PM 44.6 °F 38.8 °F 41.0 °F 87% 30.16 in 10.0 mi North 11.5 mph - 0.00 in   Overcast
5:53 PM 44.1 °F 40.1 °F 41.0 °F 89% 30.18 in 10.0 mi North 6.9 mph - 0.00 in   Overcast
6:53 PM 43.0 °F 38.2 °F 39.0 °F 86% 30.20 in 10.0 mi NNW 8.1 mph - 0.00 in Rain Light Rain
7:08 PM 42.8 °F 40.1 °F 39.2 °F 87% 30.18 in 10.0 mi NW 4.6 mph - 0.00 in Rain Light Rain
7:53 PM 39.2 °F 35.0 °F 39.2 °F 100% 30.20 in 10.0 mi WNW 5.8 mph - N/A   Mostly Cloudy
8:53 PM 37.0 °F 32.4 °F 36.0 °F 96% 30.22 in 10.0 mi WNW 5.8 mph - N/A   Clear
9:53 PM 36.0 °F 30.3 °F 34.0 °F 93% 30.22 in 10.0 mi West 6.9 mph - N/A   Clear
10:53 PM 33.1 °F 28.7 °F 32.0 °F 96% 30.22 in 10.0 mi NW 4.6 mph - N/A   Clear
11:53 PM 32.0 °F 25.6 °F 30.9 °F 96% 30.22 in 10.0 mi NW 6.9 mph - N/A   Clear